Middleton, WI

8:50 AM CDT on September 29, 2016 (GMT -0500)
Middleton

Weather History for KC29 - June, 2013

Change the Weather History Date:

Sunday, June 30, 2013

  Actual Average (KMSN) Record (KMSN)
Temperature  
Mean Temperature 67 °F 71 °F  
Max Temperature 78 °F 81 °F 99 °F (1931)
Min Temperature 56 °F 60 °F 43 °F (1988)
Degree Days  
Heating Degree Days 0 1  
Month to date heating degree days 63  
Since 1 June heating degree days 60  
Since 1 July heating degree days 7333  
Cooling Degree Days 2 6  
Month to date cooling degree days 120  
Year to date cooling degree days 150  
Since 1 June cooling degree days 120  
Growing Degree Days 17 (Base 50)    
Moisture  
Dew Point 53 °F    
Average Humidity 63    
Maximum Humidity 89    
Minimum Humidity 38    
Precipitation  
Precipitation 0.00 in 0.14 in 2.50 in (1978)
Month to date precipitation 4.54  
Year to date precipitation 16.37  
Snow  
Snow 0.00 in 0.00 in 0.00 in ()
Month to date snowfall 0.0  
Since 1 June snowfall 0.0  
Since 1 July snowfall 50.9  
Snow Depth -    
Sea Level Pressure  
Sea Level Pressure 29.98 in    
Wind  
Wind Speed 7 mph (NNE)    
Max Wind Speed 15 mph    
Max Gust Speed 21 mph    
Visibility 10 miles    
Events      
T = Trace of Precipitation, MM = Missing Value Source: NWS Daily Summary

Daily Weather History Graph

Daily Weather History Graph

Search for Another Location

Airport or City:

Trip Planner

Search our weather history database for the weather conditions in past years. The results will help you decide how hot, cold, wet, or windy it might be!

Date:

Astronomy

Jun. 30, 2013 Rise Set
Actual Time 5:22 AM CDT 8:41 PM CDT
Civil Twilight 4:46 AM CDT 9:16 PM CDT
Nautical Twilight 4:00 AM CDT 10:02 PM CDT
Astronomical Twilight 3:04 AM CDT 10:58 PM CDT
Moon 12:28 AM CDT (6/30) 1:49 PM CDT (6/30)
Length of Visible Light 16h 30m
Length of Day
15h 19m
Last Quarter, 45% of the Moon is Illuminated
Jun 30
Last Quarter
Jul 8
New
Jul 15
First Quarter
Jul 22
Full
Jul 29
Last Quarter

Hourly Weather History & Observations

Time (CDT) Temp. Dew Point Humidity Pressure Visibility Wind Dir Wind Speed Gust Speed Precip Events Conditions
12:15 AM 64.4 °F 57.2 °F 77% 29.87 in 10.0 mi NNE 8.1 mph - N/A   Overcast
12:35 AM 63.9 °F 57.4 °F 79% 29.87 in 10.0 mi NNE 5.8 mph - N/A   Overcast
12:55 AM 64.0 °F 56.8 °F 77% 29.87 in 10.0 mi NNE 6.9 mph - N/A   Overcast
1:15 AM 63.5 °F 56.3 °F 77% 29.87 in 10.0 mi North 6.9 mph - N/A   Overcast
1:35 AM 63.9 °F 56.3 °F 76% 29.88 in 10.0 mi NNE 6.9 mph - N/A   Overcast
1:55 AM 64.0 °F 56.7 °F 77% 29.87 in 10.0 mi North 4.6 mph - N/A   Overcast
2:15 AM 62.8 °F 57.2 °F 82% 29.88 in 10.0 mi North 8.1 mph - N/A   Mostly Cloudy
2:35 AM 62.6 °F 57.0 °F 82% 29.88 in 10.0 mi North 6.9 mph - N/A   Overcast
2:55 AM 62.6 °F 54.7 °F 75% 29.88 in 10.0 mi North 5.8 mph - N/A   Overcast
3:15 AM 62.1 °F 51.6 °F 69% 29.89 in 10.0 mi North 6.9 mph 17.3 mph N/A   Overcast
3:35 AM 60.8 °F 51.4 °F 71% 29.89 in 10.0 mi North 4.6 mph - N/A   Mostly Cloudy
3:55 AM 59.9 °F 51.8 °F 75% 29.89 in 10.0 mi North 5.8 mph - N/A   Scattered Clouds
4:15 AM 59.2 °F 52.9 °F 80% 29.90 in 10.0 mi North 5.8 mph - N/A   Clear
4:35 AM 59.0 °F 52.0 °F 78% 29.90 in 10.0 mi North 4.6 mph - N/A   Clear
4:55 AM 58.5 °F 51.6 °F 78% 29.91 in 10.0 mi North 3.5 mph - N/A   Clear
5:15 AM 58.1 °F 50.9 °F 77% 29.92 in 10.0 mi North 5.8 mph - N/A   Clear
5:35 AM 57.9 °F 50.5 °F 76% 29.92 in 10.0 mi Calm Calm - N/A   Clear
5:55 AM 56.3 °F 50.0 °F 79% 29.93 in 10.0 mi NW 3.5 mph - N/A   Clear
6:15 AM 57.2 °F 50.0 °F 77% 29.94 in 10.0 mi Calm Calm - N/A   Clear
6:35 AM 57.4 °F 50.9 °F 79% 29.94 in 10.0 mi Calm Calm - N/A   Clear
6:55 AM 59.0 °F 50.2 °F 73% 29.95 in 10.0 mi Calm Calm - N/A   Clear
7:15 AM 59.2 °F 49.6 °F 71% 29.95 in 10.0 mi Calm Calm - N/A   Clear
7:35 AM 60.6 °F 49.1 °F 66% 29.96 in 10.0 mi NNW 6.9 mph - N/A   Clear
7:55 AM 61.7 °F 48.9 °F 63% 29.97 in 10.0 mi North 6.9 mph - N/A   Clear
8:15 AM 62.6 °F 48.9 °F 61% 29.97 in 10.0 mi North 6.9 mph - N/A   Clear
8:35 AM 63.3 °F 50.4 °F 63% 29.97 in 10.0 mi North 6.9 mph - N/A   Clear
8:55 AM 64.9 °F 50.4 °F 59% 29.97 in 10.0 mi NNE 4.6 mph - N/A   Clear
9:15 AM 66.2 °F 50.2 °F 56% 29.98 in 10.0 mi North 8.1 mph - N/A   Clear
9:35 AM 68.0 °F 51.4 °F 55% 29.98 in 10.0 mi North 6.9 mph - N/A   Clear
9:55 AM 68.2 °F 51.8 °F 56% 29.98 in 10.0 mi North 5.8 mph - N/A   Clear
10:15 AM 68.5 °F 52.2 °F 56% 29.98 in 10.0 mi NNE 9.2 mph - N/A   Clear
10:35 AM 69.3 °F 53.4 °F 57% 29.98 in 10.0 mi North 8.1 mph - N/A   Clear
10:55 AM 70.0 °F 53.8 °F 56% 29.99 in 10.0 mi North 8.1 mph - N/A   Clear
11:15 AM 71.4 °F 54.9 °F 56% 29.99 in 10.0 mi NNE 9.2 mph - N/A   Clear
11:35 AM 72.5 °F 55.2 °F 54% 29.99 in 10.0 mi North 9.2 mph - N/A   Clear
11:55 AM 73.2 °F 55.9 °F 55% 29.99 in 10.0 mi NNE 8.1 mph - N/A   Clear
12:15 PM 73.4 °F 55.6 °F 54% 29.99 in 10.0 mi NNE 10.4 mph - N/A   Clear
12:35 PM 74.3 °F 55.0 °F 51% 29.99 in 10.0 mi NNE 12.7 mph 19.6 mph N/A   Clear
12:55 PM 74.8 °F 55.8 °F 51% 29.99 in 10.0 mi NNE 10.4 mph 17.3 mph N/A   Clear
1:15 PM 76.3 °F 56.1 °F 50% 30.00 in 10.0 mi North 9.2 mph 16.1 mph N/A   Clear
1:35 PM 76.3 °F 54.7 °F 47% 29.99 in 10.0 mi NNE 13.8 mph 17.3 mph N/A   Clear
1:55 PM 77.0 °F 55.2 °F 47% 29.99 in 10.0 mi NNE 9.2 mph - N/A   Clear
2:15 PM 77.2 °F 54.7 °F 46% 30.00 in 10.0 mi NNE 12.7 mph 18.4 mph N/A   Clear
2:35 PM 77.5 °F 54.3 °F 44% 29.99 in 10.0 mi NE 9.2 mph 17.3 mph N/A   Clear
2:55 PM 77.7 °F 51.3 °F 40% 29.99 in 10.0 mi ENE 12.7 mph 17.3 mph N/A   Clear
3:15 PM 77.5 °F 51.3 °F 40% 29.99 in 10.0 mi NNE 13.8 mph 20.7 mph N/A   Clear
3:35 PM 77.7 °F 51.1 °F 39% 30.00 in 10.0 mi NE 10.4 mph 19.6 mph N/A   Clear
3:55 PM 78.4 °F 53.4 °F 42% 30.00 in 10.0 mi NE 9.2 mph - N/A   Scattered Clouds
4:15 PM 77.5 °F 51.6 °F 40% 30.01 in 10.0 mi NE 12.7 mph 20.7 mph N/A   Scattered Clouds
4:35 PM 77.9 °F 52.5 °F 41% 30.01 in 10.0 mi NNE 11.5 mph 20.7 mph N/A   Scattered Clouds
4:55 PM 77.4 °F 51.1 °F 40% 30.01 in 10.0 mi NNE 15.0 mph - N/A   Scattered Clouds
5:15 PM 77.2 °F 52.3 °F 42% 30.01 in 10.0 mi NNE 12.7 mph 17.3 mph N/A   Clear
5:35 PM 76.3 °F 50.9 °F 41% 30.01 in 10.0 mi NNE 10.4 mph 16.1 mph N/A   Clear
5:55 PM 75.7 °F 48.9 °F 39% 30.01 in 10.0 mi NE 13.8 mph 19.6 mph N/A   Clear
6:15 PM 75.4 °F 48.6 °F 39% 30.02 in 10.0 mi NNE 11.5 mph - N/A   Clear
6:35 PM 74.1 °F 46.8 °F 38% 30.02 in 10.0 mi NNE 13.8 mph 17.3 mph N/A   Clear
6:55 PM 72.0 °F 49.8 °F 46% 30.03 in 10.0 mi NNE 6.9 mph - N/A   Clear
7:15 PM 71.6 °F 48.9 °F 45% 30.03 in 10.0 mi NE 6.9 mph - N/A   Clear
7:35 PM 71.2 °F 50.5 °F 48% 30.04 in 10.0 mi NE 6.9 mph - N/A   Clear
7:55 PM 69.1 °F 48.2 °F 47% 30.04 in 10.0 mi NE 5.8 mph - N/A   Clear
8:15 PM 65.7 °F 51.4 °F 60% 30.04 in 10.0 mi NNE 4.6 mph - N/A   Clear
8:35 PM 65.8 °F 49.8 °F 56% 30.04 in 10.0 mi NNE 4.6 mph - N/A   Clear
8:55 PM 62.8 °F 52.7 °F 70% 30.04 in 10.0 mi NNE 3.5 mph - N/A   Clear
9:15 PM 61.7 °F 55.0 °F 79% 30.04 in 10.0 mi Calm Calm - N/A   Clear
9:35 PM 59.9 °F 54.0 °F 81% 30.05 in 10.0 mi Calm Calm - N/A   Clear
9:55 PM 58.3 °F 55.0 °F 89% 30.05 in 10.0 mi Calm Calm - N/A   Clear
10:15 PM 59.0 °F 54.9 °F 86% 30.06 in 10.0 mi Calm Calm - N/A   Clear
10:35 PM 58.8 °F 54.9 °F 87% 30.06 in 10.0 mi Calm Calm - N/A   Clear
10:55 PM 57.6 °F 54.0 °F 88% 30.06 in 10.0 mi Calm Calm - N/A   Clear
11:15 PM 57.2 °F 54.0 °F 89% 30.06 in 10.0 mi Calm Calm - N/A   Clear
11:35 PM 58.1 °F 53.6 °F 85% 30.07 in 10.0 mi Calm Calm - N/A   Clear
11:55 PM 59.0 °F 52.3 °F 79% 30.07 in 10.0 mi Calm Calm - N/A   Clear